Satellite-Ground Cal/Val Region Overpasses Predictions

Prediction of Satellite NPP Overpassing Cal/Val Region: PacNW

Region Location: (Latitude: 10.00, Longitude: 139.50) to (Latitude: 22.70, Longitude: 165.60).

Table of predicted overpasses for the next 14.0 days since TLE Epoch: 2/4/2024
Interval Starting Time Starting Location Ending Time Ending Location
1 02/04/2024 02:59:00 ( 10.05, 155.05) 02/04/2024 03:02:35 ( 22.68, 152.05)
2 02/04/2024 15:30:53 ( 22.67, 152.29) 02/04/2024 15:34:28 ( 10.05, 149.29)
3 02/05/2024 02:39:58 ( 10.03, 159.82) 02/05/2024 02:43:33 ( 22.65, 156.81)
4 02/05/2024 15:11:50 ( 22.69, 157.05) 02/05/2024 15:15:26 ( 10.02, 154.04)
5 02/06/2024 02:20:56 ( 10.06, 164.57) 02/06/2024 02:24:31 ( 22.68, 161.56)
6 02/06/2024 14:52:49 ( 22.66, 161.80) 02/06/2024 14:56:24 ( 10.04, 158.80)
7 02/07/2024 03:43:24 ( 10.04, 143.95) 02/07/2024 03:46:59 ( 22.66, 140.95)
8 02/07/2024 14:34:54 ( 18.70, 165.59) 02/07/2024 14:37:22 ( 10.01, 163.55)
9 02/07/2024 16:15:16 ( 22.68, 141.19) 02/07/2024 16:17:14 ( 15.76, 139.51)
10 02/08/2024 03:24:21 ( 10.02, 148.72) 02/08/2024 03:27:57 ( 22.70, 145.70)
11 02/08/2024 15:56:15 ( 22.65, 145.94) 02/08/2024 15:59:50 ( 10.03, 142.94)
12 02/09/2024 03:05:20 ( 10.05, 153.47) 02/09/2024 03:08:55 ( 22.67, 150.47)
13 02/09/2024 15:37:12 ( 22.67, 150.71) 02/09/2024 15:40:47 ( 10.05, 147.70)
14 02/10/2024 02:46:17 ( 10.03, 158.23) 02/10/2024 02:49:52 ( 22.65, 155.23)
15 02/10/2024 15:18:10 ( 22.69, 155.47) 02/10/2024 15:21:46 ( 10.01, 152.45)
16 02/11/2024 02:27:15 ( 10.01, 163.00) 02/11/2024 02:30:51 ( 22.69, 159.98)
17 02/11/2024 14:59:08 ( 22.65, 160.22) 02/11/2024 15:02:43 ( 10.03, 157.22)
18 02/12/2024 02:10:49 ( 19.21, 165.60) 02/12/2024 02:11:48 ( 22.67, 164.74)
19 02/12/2024 03:49:43 ( 10.05, 142.37) 02/12/2024 03:53:08 ( 22.09, 139.51)
20 02/12/2024 14:40:06 ( 22.67, 164.98) 02/12/2024 14:43:41 ( 10.05, 161.98)
21 02/12/2024 16:21:36 ( 22.67, 139.61) 02/12/2024 16:21:43 ( 22.26, 139.51)
22 02/13/2024 03:30:41 ( 10.04, 147.13) 02/13/2024 03:34:16 ( 22.66, 144.13)
23 02/13/2024 16:02:34 ( 22.68, 144.37) 02/13/2024 16:06:10 ( 10.01, 141.36)
24 02/14/2024 03:11:38 ( 10.02, 151.90) 02/14/2024 03:15:14 ( 22.70, 148.88)
25 02/14/2024 15:43:32 ( 22.64, 149.12) 02/14/2024 15:47:07 ( 10.02, 146.12)
26 02/15/2024 02:52:36 ( 10.00, 156.66) 02/15/2024 02:56:12 ( 22.68, 153.64)
27 02/15/2024 15:24:30 ( 22.66, 153.88) 02/15/2024 15:28:05 ( 10.04, 150.88)
28 02/16/2024 02:33:34 ( 10.04, 161.41) 02/16/2024 02:37:09 ( 22.67, 158.40)
29 02/16/2024 15:05:27 ( 22.68, 158.65) 02/16/2024 15:09:02 ( 10.06, 155.64)
30 02/17/2024 02:15:15 ( 12.56, 165.59) 02/17/2024 02:18:07 ( 22.65, 163.17)
31 02/17/2024 03:56:02 ( 10.04, 140.79) 02/17/2024 03:57:36 ( 15.56, 139.51)
